Hourly Data Report for October 03, 2014

All times are specified in Local Standard Time (LST). Add 1 hour to adjust for Daylight Saving Time where and when it is observed.

KAMLOOPS A
BRITISH COLUMBIA

50°42'09.000" N
120°26'55.000" W
345.30 m
1163781
71887
YKA

Download Data

Hourly Data (October 2014)
Hourly Data Report for October 3, 2014
Temp Definition
°C
Dew Point Temp Definition
°C
Rel Hum Definition
%
Wind Dir Definition
10's deg

Wind Spd Definition
km/h
Visibility Definition
km
Stn Press Definition
kPa
Hmdx Definition


Wind Chill Definition


Weather Definition


TIME
00:00 Legend Double Dagger 8.8 -0.2 53 11 20 64.4 98.67     LegendNANA
01:00 Legend Double Dagger 8.4 1.1 60 10 25 64.4 98.62     Mainly Clear
02:00 Legend Double Dagger 8.6 1.3 60 12 17 64.4 98.69     LegendNANA
03:00 Legend Double Dagger 8.4 0.6 58 12 18 64.4 98.65     LegendNANA
04:00 Legend Double Dagger 8.1 1.5 63 10 21 64.4 98.62     Mostly Cloudy
05:00 Legend Double Dagger 8.1 1.1 61 11 19 64.4 98.58     LegendNANA
06:00 Legend Double Dagger 7.3 0.7 63 9 14 64.4 98.53     LegendNANA
07:00 Legend Double Dagger 7.5 1.4 65 11 16 64.4 98.52     Mostly Cloudy
08:00 Legend Double Dagger 8.9 0.9 57 11 16 64.4 98.51     LegendNANA
09:00 Legend Double Dagger 10.1 0.5 51 12 14 64.4 98.52     LegendNANA
10:00 Legend Double Dagger 10.9 0.9 50 12 12 64.4 98.50     Mostly Cloudy
11:00 Legend Double Dagger 10.4 1.3 53 12 16 64.4 98.47     LegendNANA
12:00 Legend Double Dagger 10.7 1.6 53 14 8 64.4 98.44     LegendNANA
13:00 Legend Double Dagger 10.9 2.0 54 14 5 64.4 98.42     Rain Showers
14:00 Legend Double Dagger 11.1 1.9 53 8 8 64.4 98.33     Rain Showers
15:00 Legend Double Dagger 11.1 1.4 51 10 18 64.4 98.27     LegendNANA
16:00 Legend Double Dagger 10.9 3.0 58 11 16 64.4 98.24     Cloudy
17:00 Legend Double Dagger 10.5 3.6 62 11 13 64.4 98.15     LegendNANA
18:00 Legend Double Dagger 10.5 3.3 61 11 21 64.4 98.10     LegendNANA
19:00 Legend Double Dagger 10.5 4.2 65 11 15 64.4 98.11     Cloudy
20:00 Legend Double Dagger 10.1 4.9 70 12 14 64.4 98.06     LegendNANA
21:00 Legend Double Dagger 9.4 6.5 82 12 19 64.4 98.04     LegendNANA
22:00 Legend Double Dagger 9.7 6.3 79 13 17 64.4 98.05     Cloudy
23:00 Legend Double Dagger 9.4 6.5 82 11 16 64.4 98.06     LegendNANA

Notes on Data Quality.

Legend

  • E = Estimated
  • M = Missing
  • NA = Not Available
  • ‡ = Partner data that is not subject to review by the National Climate Archives
Date modified: